Theta_e
329 332 337 341 342 344 347 348 351 352 353 352 351 354 356 355 356 357 357 356 355 353 351 350 345 347 350 350 349 349 349 348 347 348 350 344 341 343 343 343 342 341 342 342 342 342 342 344 344 343 343 343 343 341 340 338 335 333 331 332 334 335 334 331 329 329 331 334 337 340 341 341 340 340 340 339 338 338 339 341 343 343 343 344 344 343 343 340 340 342 341 340 340 338 338 339 338
332 337 342 345 346 349 350 348 352 354 352 351 352 357 357 356 357 357 357 357 356 352 350 347 346 350 351 348 347 348 349 348 346 345 345 341 343 344 343 343 342 342 342 341 342 342 342 343 343 343 343 342 342 342 340 338 336 335 334 334 334 335 334 332 331 331 333 337 340 341 341 341 341 341 341 340 338 339 340 342 343 343 343 343 343 344 344 342 339 341 341 340 339 338 339 339 338
336 341 345 347 347 349 350 349 352 352 351 352 356 359 358 358 358 357 357 356 354 351 350 348 349 351 349 350 350 350 350 348 345 342 341 342 344 343 343 343 342 342 341 340 341 341 342 343 343 342 342 341 341 341 340 339 338 336 335 334 334 334 333 332 331 331 335 340 342 342 342 342 342 342 342 340 338 339 341 342 343 343 343 343 343 344 344 343 340 339 341 340 339 339 340 339 338
340 344 347 347 348 350 352 354 354 352 353 352 356 360 358 359 358 357 355 353 352 350 350 348 350 351 350 354 351 350 350 347 344 340 341 343 343 343 344 343 342 341 340 340 339 340 342 343 342 341 340 340 340 339 338 337 336 335 335 334 333 332 332 331 331 334 339 342 343 342 342 342 343 343 343 340 338 339 340 342 343 344 344 343 343 343 343 344 342 340 340 340 340 340 340 340 339
343 347 348 348 350 352 354 356 356 353 355 355 358 361 357 357 357 355 354 352 351 351 350 349 351 350 350 352 349 350 350 346 343 338 340 342 343 342 343 344 343 341 340 340 339 340 340 341 339 338 338 338 338 337 337 336 335 335 335 334 332 330 330 332 336 340 343 343 343 342 342 343 344 344 343 341 340 341 342 343 344 344 344 343 344 344 343 343 343 343 342 341 341 340 340 341 341
347 348 348 349 350 350 353 355 355 354 355 357 361 362 357 356 356 354 353 352 352 351 350 349 351 350 349 349 349 349 348 346 341 338 339 341 341 341 342 342 342 341 341 340 340 339 339 337 336 337 337 337 338 337 337 337 336 336 335 332 330 331 335 339 341 342 343 343 342 342 342 343 344 344 344 343 342 343 343 344 344 344 343 343 344 343 343 343 342 343 342 342 342 342 341 340 341
348 349 349 351 350 349 354 355 353 355 356 356 361 362 357 356 355 354 352 352 352 351 351 350 349 352 351 349 349 348 348 346 339 338 339 339 340 340 340 340 341 341 341 341 339 339 338 335 335 337 338 339 339 339 339 338 337 335 332 332 333 338 342 343 342 343 344 343 342 343 343 343 344 344 344 344 343 343 343 343 343 343 343 343 344 343 343 342 341 340 340 341 342 342 342 340 341
348 350 350 354 355 353 356 354 354 357 356 355 357 358 356 354 354 353 352 352 352 352 351 351 349 354 353 349 350 349 348 344 337 338 338 339 339 339 339 339 339 339 340 340 339 338 337 336 338 339 340 342 342 340 339 339 337 335 335 338 340 343 344 344 343 344 343 342 342 343 343 343 344 344 344 344 343 343 343 343 343 343 343 343 343 342 341 339 339 340 341 343 342 342 343 342 342
348 351 350 354 357 355 356 355 357 357 356 354 354 355 354 354 353 352 353 353 353 351 351 350 349 355 352 348 350 349 347 343 337 338 337 338 339 339 339 339 338 338 339 339 338 339 340 341 342 343 343 343 343 341 338 338 337 338 340 342 343 344 344 344 344 343 342 341 342 343 344 344 344 344 344 344 343 343 343 343 343 344 343 342 341 340 338 338 341 343 343 343 342 343 343 344 343
350 351 351 354 356 355 354 355 358 357 355 354 354 355 354 354 354 352 353 354 353 351 350 350 349 352 350 349 350 349 347 343 338 338 338 339 339 340 340 340 339 338 338 339 340 341 343 344 343 344 344 343 343 340 338 339 339 341 342 342 343 344 345 345 344 343 342 341 342 344 344 344 344 344 344 344 343 343 343 343 343 343 341 339 338 338 338 339 342 343 343 343 343 343 343 343 343
352 351 351 354 355 353 354 355 358 358 355 354 355 355 353 353 353 352 354 354 352 351 349 350 350 349 349 349 350 349 347 343 339 339 339 339 339 340 340 340 340 338 338 340 342 342 344 344 344 344 343 343 342 340 339 341 342 343 343 342 344 344 345 345 344 344 342 342 343 343 343 344 343 343 344 343 343 343 343 343 342 341 339 338 338 338 338 340 343 343 343 343 343 343 343 343 342
353 353 352 355 355 354 355 356 357 357 355 354 355 354 353 353 353 353 355 354 351 350 349 349 350 348 349 350 350 349 347 343 341 340 340 340 339 339 340 340 340 339 339 341 342 342 344 344 344 344 343 343 343 342 342 343 343 344 343 342 344 345 344 345 344 344 343 343 342 342 343 343 343 342 343 343 343 343 343 343 342 341 339 339 338 337 338 340 342 342 342 343 343 342 343 343 342
352 353 354 355 355 356 357 357 357 358 358 356 355 353 353 354 354 353 354 353 351 350 350 349 349 348 349 350 350 349 347 343 341 341 340 339 338 339 340 340 340 341 341 341 341 342 342 342 344 343 343 344 343 344 344 343 344 344 343 343 344 344 344 344 344 344 343 343 342 342 343 343 343 343 343 343 344 343 343 343 342 342 341 341 340 338 337 338 340 341 342 342 342 342 342 343 342
352 352 354 356 355 357 357 358 358 358 358 355 354 353 353 355 354 354 354 353 352 351 350 349 348 348 350 350 350 349 347 344 341 341 340 338 337 338 339 340 341 341 341 341 340 341 340 341 343 342 343 344 344 344 344 344 344 344 344 344 344 343 344 344 344 344 344 343 342 342 343 344 343 343 343 343 343 343 343 343 342 342 342 342 342 340 338 337 338 339 341 341 341 341 342 342 342
352 352 354 357 356 355 357 359 357 357 357 353 353 353 354 355 353 354 353 353 353 350 349 349 347 349 351 349 350 349 346 344 342 341 339 338 337 338 340 340 341 341 340 339 338 340 341 342 343 342 343 344 344 344 344 344 345 345 344 344 344 344 344 344 344 344 344 343 342 341 342 343 343 343 344 344 343 343 343 343 343 343 342 342 342 342 341 339 337 338 341 342 341 341 341 342 342
352 352 354 357 355 354 359 360 356 358 357 353 353 353 354 354 352 354 354 353 352 350 349 349 346 348 348 347 349 348 345 343 342 341 339 338 338 340 342 341 342 340 338 338 340 342 343 342 343 343 343 343 343 343 343 344 345 345 345 345 344 345 345 344 344 345 344 344 343 343 343 344 343 343 344 344 344 344 343 343 343 343 342 342 342 343 342 340 338 339 342 342 342 342 342 341 342
352 353 356 356 354 355 362 363 359 360 357 354 354 353 355 354 352 354 353 352 351 350 350 348 347 347 346 346 348 346 344 343 342 340 339 338 339 340 342 343 341 338 337 340 342 343 343 342 343 342 343 343 343 344 344 344 345 345 345 345 345 345 345 345 345 346 345 345 344 344 344 344 343 344 345 344 344 344 343 343 344 343 342 342 343 343 342 341 339 340 341 342 342 343 342 341 341
352 354 356 355 356 360 364 363 360 359 357 355 355 354 355 355 354 353 352 352 351 351 350 348 348 347 346 346 347 346 344 343 341 340 340 338 339 341 342 342 339 337 340 343 343 343 343 343 343 342 343 344 344 344 344 344 345 345 344 345 346 346 346 345 345 346 345 344 344 344 344 344 343 344 344 344 344 343 343 343 344 343 343 343 342 342 342 341 339 339 341 343 342 342 342 341 341
352 353 356 357 360 362 358 358 358 358 358 355 355 355 354 354 353 353 354 353 351 352 350 348 348 347 347 347 347 346 343 342 341 339 338 338 339 340 340 339 337 338 342 343 343 344 343 343 344 343 343 343 343 344 345 344 345 344 344 345 345 345 346 345 345 345 344 344 345 344 344 344 344 344 343 343 343 343 344 344 343 343 342 343 343 342 342 341 339 339 341 342 342 341 341 340 340
353 353 357 359 358 358 354 354 356 356 357 355 356 356 354 354 352 354 354 353 352 351 350 349 348 347 348 347 346 345 343 341 339 338 337 338 340 337 335 336 337 340 342 342 344 345 345 344 344 343 343 342 343 344 345 345 345 345 345 345 346 345 345 345 345 344 344 344 344 344 344 344 343 343 343 343 343 344 345 344 343 342 343 343 343 341 340 341 340 339 340 341 341 341 341 341 340
353 352 356 356 354 357 356 354 355 356 356 355 356 356 356 354 353 354 353 353 355 351 349 349 347 347 347 346 345 345 343 340 338 338 337 338 338 333 331 334 338 341 341 342 344 345 345 344 344 344 343 342 342 343 345 344 344 345 345 345 346 345 344 344 344 343 343 343 343 342 342 343 342 342 343 343 343 344 344 343 342 342 342 342 341 340 339 340 340 339 339 340 340 341 341 341 340
350 351 352 352 351 357 358 354 355 356 355 355 355 356 356 354 353 354 351 354 355 351 350 349 347 346 345 345 344 345 344 341 339 338 338 338 334 331 333 336 339 340 341 343 344 345 345 344 345 345 343 341 341 342 344 344 345 344 344 344 344 343 342 342 342 343 343 342 341 341 341 342 341 342 344 344 342 343 344 343 342 341 341 340 339 339 337 337 338 338 338 339 340 340 341 341 341
347 348 348 349 350 354 357 355 355 356 355 355 355 355 355 354 356 354 351 354 352 350 350 349 348 345 343 343 343 345 344 341 339 338 338 336 332 331 335 337 338 340 341 342 343 344 344 344 345 345 342 340 341 342 344 345 344 343 342 343 343 342 341 342 342 342 341 340 339 339 340 340 341 341 343 343 342 343 343 343 340 338 338 338 338 337 336 334 336 336 338 340 341 341 341 341 341
345 347 345 346 347 351 355 355 355 357 356 354 354 355 355 355 357 354 352 353 351 351 351 349 349 345 343 344 344 345 345 342 340 338 337 334 332 332 335 336 337 338 338 341 342 343 343 343 344 344 341 340 341 341 344 345 343 342 342 342 342 342 342 342 341 340 339 339 338 337 338 339 340 341 341 341 342 342 342 341 338 336 337 337 336 336 336 335 335 336 338 340 341 342 342 342 342
343 344 344 343 344 348 353 355 356 357 355 354 354 355 356 355 355 354 353 353 351 351 351 349 348 345 344 345 345 346 347 345 342 340 338 337 335 335 336 336 337 337 336 338 341 341 341 341 343 342 340 341 341 340 343 344 342 342 342 342 343 342 341 341 340 339 339 339 339 339 340 340 340 340 340 340 341 341 341 340 337 335 336 336 337 337 337 337 337 337 338 340 341 342 343 343 343
342 341 342 340 342 350 354 355 357 357 355 354 354 356 356 353 354 355 353 353 351 350 350 349 348 345 345 347 346 347 347 346 343 343 343 342 340 338 337 336 336 335 334 335 337 339 339 340 341 340 340 341 340 340 342 342 340 340 341 342 342 341 341 340 340 340 339 340 340 341 341 340 340 340 340 340 340 340 339 338 337 336 337 338 339 340 339 338 338 338 339 340 342 343 343 343 343
337 335 336 335 339 350 355 355 357 357 355 354 354 356 355 352 355 358 354 352 351 350 350 349 348 346 346 348 348 348 348 347 345 346 347 346 344 340 337 336 335 334 334 335 336 338 340 340 340 338 339 341 339 339 341 339 338 339 341 342 341 339 340 340 340 340 340 340 341 341 341 341 341 340 340 340 339 339 339 338 338 337 338 339 340 341 340 338 338 339 340 341 343 343 344 344 344
334 331 331 339 345 351 355 355 357 356 355 354 352 352 355 353 356 359 354 351 351 350 350 349 348 347 347 348 348 348 348 348 347 347 347 345 341 339 337 335 333 333 334 334 336 339 339 339 338 337 339 340 339 340 340 338 338 339 340 341 339 338 338 339 340 340 340 341 342 342 342 342 342 341 340 340 340 340 340 340 340 340 340 341 342 342 341 339 338 339 340 342 343 344 344 344 344
333 328 332 348 352 353 355 356 356 355 355 355 351 353 356 355 356 356 352 351 351 350 350 349 348 347 347 348 348 349 349 348 348 347 347 343 337 335 335 333 331 333 334 334 336 338 338 338 337 337 338 339 339 339 338 337 337 339 340 340 339 337 338 339 340 341 343 344 344 344 344 343 343 343 344 343 342 341 342 343 343 343 343 343 343 342 342 340 339 340 341 343 344 344 345 344 344
330 329 343 358 356 353 355 356 355 353 355 355 351 354 359 358 355 355 352 351 350 350 350 349 348 348 347 348 348 348 349 348 348 347 347 345 340 335 335 333 331 333 334 334 336 337 337 337 337 337 338 339 339 339 338 337 338 340 340 340 339 339 339 340 341 344 347 347 347 346 345 345 344 345 346 346 345 343 344 344 345 344 343 344 344 343 342 341 340 340 341 342 344 344 345 345 345
329 329 344 356 356 354 355 354 355 355 355 355 350 354 363 361 355 354 353 351 351 350 350 349 348 348 347 347 348 348 348 348 348 347 346 346 342 336 335 334 332 333 335 335 336 336 336 337 337 337 337 338 338 338 338 337 338 340 340 340 341 341 342 342 343 346 348 348 347 347 345 345 345 346 346 346 346 345 344 345 345 345 344 344 344 343 342 341 340 340 340 341 343 344 345 345 345
332 327 333 347 351 354 356 354 354 354 355 355 351 355 363 362 355 354 352 352 351 350 351 349 348 348 347 346 347 347 348 348 347 347 346 346 343 337 334 334 332 334 336 336 336 336 335 336 337 337 337 337 337 338 338 338 339 339 339 340 341 343 343 344 345 347 347 346 347 347 346 346 346 346 345 345 345 344 344 345 345 345 345 344 343 342 342 341 340 341 341 340 342 344 345 345 344
338 331 332 342 348 352 358 355 353 354 355 355 353 356 362 359 354 353 352 352 352 351 351 349 347 348 346 345 346 347 347 347 348 347 346 346 345 340 336 334 333 334 336 337 337 336 336 336 337 337 337 336 337 338 338 339 340 339 338 339 341 343 343 345 345 347 346 345 346 347 346 345 346 345 344 344 344 344 343 344 344 344 344 344 343 342 342 341 340 341 342 341 341 343 344 345 345
338 336 333 334 340 352 359 356 353 352 354 357 355 358 360 356 353 353 352 352 351 351 351 349 347 347 346 345 345 346 346 347 347 347 347 346 345 344 341 337 334 334 336 337 337 336 336 337 337 336 336 336 337 339 339 340 340 340 339 339 342 343 343 345 346 347 347 346 345 346 346 345 345 345 344 343 342 342 342 343 344 343 343 344 343 343 342 342 342 342 343 342 342 343 344 345 345
331 332 330 327 329 341 354 359 356 352 355 357 356 358 357 353 354 354 352 352 352 351 351 349 347 346 346 345 345 345 345 346 347 346 346 346 345 344 344 341 338 335 336 337 337 337 337 337 337 336 336 337 338 339 340 341 341 342 341 341 343 343 343 347 347 347 348 346 345 345 344 344 344 345 344 343 341 341 342 342 342 342 343 344 343 343 342 342 342 341 342 343 342 343 344 345 346
328 328 327 326 325 327 341 354 354 352 354 356 356 357 356 354 355 354 352 352 351 351 351 350 347 346 346 344 344 344 345 345 346 346 346 346 345 344 344 344 342 339 337 337 338 338 338 338 337 336 336 337 339 340 340 341 342 343 343 344 344 342 344 347 347 347 347 346 346 344 343 344 345 345 344 343 342 341 342 342 342 342 343 344 343 342 342 341 341 341 343 343 343 344 345 346 346
328 328 327 327 326 326 330 335 345 354 355 355 355 355 355 354 354 353 353 352 351 351 350 350 348 345 346 345 344 344 344 345 345 346 346 345 345 344 344 344 344 343 339 337 338 338 338 338 337 336 335 336 338 340 340 341 342 344 345 345 343 341 344 346 346 347 347 346 346 344 343 343 345 346 345 344 343 342 342 342 342 343 344 344 343 342 342 342 342 342 343 343 344 344 346 346 346
328 328 328 327 325 328 328 326 339 352 354 356 355 354 356 355 354 354 353 352 352 352 350 349 349 346 345 345 344 344 344 345 344 345 345 345 345 344 344 344 344 344 343 340 337 337 337 337 337 336 335 336 338 339 340 341 342 343 344 344 343 342 344 346 345 347 347 346 344 341 342 344 344 345 346 346 344 343 343 343 343 344 344 344 343 343 343 343 344 344 344 344 344 345 345 346 346
328 328 326 327 327 329 328 329 342 350 353 358 355 354 356 355 355 354 353 353 351 352 351 349 349 347 345 345 345 344 344 344 344 344 345 345 345 345 344 344 344 344 344 342 339 337 337 337 337 337 336 336 338 339 340 341 342 344 344 344 344 343 344 346 346 348 348 344 341 341 343 344 344 345 346 347 346 343 343 344 344 345 344 344 344 344 344 344 344 344 344 344 344 344 345 345 345
328 328 326 328 328 328 326 329 346 352 350 354 355 355 356 357 357 354 352 353 352 352 351 350 349 348 346 345 345 345 344 344 345 344 344 345 345 345 345 344 344 344 345 345 342 340 338 337 336 337 337 337 338 339 340 341 343 345 345 344 346 345 345 347 348 349 348 343 341 342 344 344 344 345 345 346 346 343 343 344 345 345 345 344 343 344 344 344 344 344 344 344 344 344 344 345 344
330 328 327 328 327 328 326 329 349 356 349 351 356 354 355 358 358 356 354 353 352 352 351 350 350 349 348 346 346 346 345 345 345 345 344 345 345 345 345 344 344 345 345 345 344 342 339 338 337 336 336 337 338 339 340 342 343 345 346 346 347 346 346 347 348 349 347 344 343 343 344 344 345 345 345 346 345 343 342 343 345 345 344 343 343 343 344 345 345 344 344 344 344 344 344 344 344
330 329 329 328 329 330 325 329 346 351 346 349 352 350 354 357 356 356 355 353 353 352 351 350 349 350 349 348 347 346 346 345 345 345 344 345 345 345 345 345 345 345 345 345 345 343 339 338 338 336 336 337 338 338 340 342 343 345 345 345 345 344 344 346 346 346 346 344 344 345 345 344 345 345 345 345 346 344 342 342 343 344 344 344 343 343 344 345 345 344 344 344 344 343 343 344 344
328 331 330 328 330 329 325 328 334 338 343 347 347 348 352 354 352 354 355 354 355 352 351 351 349 350 350 349 348 347 347 347 345 346 345 345 345 345 345 345 345 345 345 346 345 344 341 339 339 337 336 336 337 338 339 341 343 344 345 343 341 340 341 343 344 345 346 345 346 348 346 344 344 345 345 345 345 345 343 341 342 342 343 343 343 343 344 344 344 344 344 344 343 343 343 343 343
328 331 330 329 332 329 326 326 325 328 335 341 347 348 347 350 351 352 354 355 356 354 352 351 350 350 350 349 349 348 347 347 346 346 346 345 345 345 345 345 345 346 346 346 345 345 344 342 339 338 337 336 337 338 338 340 341 343 344 342 341 339 338 341 344 345 347 347 347 348 348 345 343 344 345 344 344 345 342 340 340 341 342 342 343 343 344 344 344 344 344 343 343 343 343 343 342
331 330 328 330 329 327 327 323 322 326 324 330 347 347 342 350 355 351 353 355 356 356 353 351 351 350 350 350 349 349 348 348 347 347 346 346 346 345 346 346 346 346 346 346 346 345 345 344 341 337 336 336 336 338 338 339 340 342 343 342 340 339 338 341 344 346 347 347 348 348 347 344 343 344 344 344 344 344 343 340 340 340 340 341 343 343 344 344 343 342 343 343 343 343 343 343 343
328 326 325 326 326 327 326 322 322 324 320 324 340 344 341 350 354 351 353 354 354 355 353 351 351 350 350 350 350 349 349 348 348 348 347 347 347 346 346 346 346 347 347 346 346 346 345 345 343 339 336 335 336 337 338 339 339 341 342 341 339 338 338 339 344 347 347 347 348 348 346 343 342 343 343 344 344 344 344 342 341 340 340 341 343 344 344 343 342 342 342 343 343 343 343 343 343
323 324 324 324 328 330 333 336 327 320 322 326 337 344 340 343 351 352 353 354 353 353 352 351 350 350 350 350 350 350 349 349 348 348 348 348 347 347 346 346 347 347 347 347 347 346 346 345 344 342 339 335 334 336 338 339 339 340 341 340 338 337 336 337 341 345 347 348 348 347 345 342 341 342 342 342 343 343 344 344 342 341 340 341 343 344 344 344 343 343 342 342 343 344 344 343 343
320 326 324 323 330 330 331 336 325 316 326 331 336 344 338 338 347 347 345 347 348 351 353 351 350 349 350 350 350 350 350 349 348 348 348 348 348 347 347 347 347 347 347 347 347 346 346 345 344 344 341 337 334 334 335 338 339 340 340 339 338 336 335 336 337 341 345 348 347 345 344 341 339 340 340 340 341 341 343 343 342 342 341 341 343 344 345 344 344 344 343 342 343 344 344 343 343
320 327 327 323 327 326 323 327 323 320 327 326 330 342 341 340 342 337 336 336 336 343 348 349 350 349 350 350 350 350 350 349 348 348 348 348 348 348 347 347 347 347 347 347 347 346 346 346 344 344 343 338 335 333 333 336 338 339 340 339 338 336 335 335 335 337 342 346 347 345 343 340 338 338 339 339 340 340 341 341 342 342 342 341 342 344 346 346 345 345 345 344 344 345 344 344 344
319 325 327 323 324 323 321 325 324 322 325 320 324 339 342 337 333 333 338 336 334 339 342 343 347 348 349 350 350 350 350 350 349 348 348 347 348 348 347 347 347 347 347 347 347 347 346 346 345 344 344 340 338 336 333 333 336 338 338 339 339 336 335 334 334 335 337 343 346 345 343 340 338 337 337 338 339 340 340 340 341 342 342 342 342 344 346 347 346 346 346 345 345 345 344 344 344
317 321 323 324 328 327 325 328 325 321 323 320 323 337 340 332 329 333 336 338 340 341 340 342 343 346 349 349 349 350 349 350 350 349 348 347 347 348 347 347 347 347 347 347 347 347 346 346 345 345 344 342 340 339 336 333 333 335 336 338 338 337 334 333 334 334 335 339 344 345 344 341 338 335 335 337 338 339 339 339 340 341 341 342 343 343 345 347 347 345 345 345 345 344 343 342 342
317 320 321 322 324 325 325 329 330 325 323 322 323 331 334 327 326 332 335 338 341 339 340 341 341 343 348 349 349 349 349 350 349 349 349 347 347 347 347 347 347 347 347 347 347 346 346 346 345 345 345 344 342 341 338 334 332 333 334 336 337 336 335 334 334 335 335 337 341 343 343 342 339 336 335 335 337 338 339 339 339 339 340 340 341 343 344 346 346 345 344 344 345 345 344 343 342
320 321 321 319 318 321 322 324 330 328 321 322 323 323 329 328 324 329 337 340 339 338 338 339 339 342 345 348 350 349 349 350 349 350 349 348 347 346 346 347 346 347 346 346 347 346 346 346 345 345 345 344 343 342 341 337 333 332 332 334 335 335 335 334 333 334 334 335 337 339 340 341 339 336 335 335 335 336 338 339 339 339 339 338 339 340 340 343 345 344 344 344 345 346 346 345 343
321 321 318 317 317 321 323 322 327 327 321 321 322 325 332 332 326 331 339 341 338 337 337 337 338 340 342 346 348 349 350 349 349 350 349 348 348 347 346 346 346 346 346 346 346 346 346 346 345 345 345 345 344 343 342 341 338 334 332 332 333 333 334 333 333 333 334 335 335 335 336 338 338 336 335 335 335 335 337 339 339 339 339 338 338 338 338 339 341 342 343 343 345 347 346 345 344
317 317 315 318 321 324 325 323 322 324 324 321 321 330 335 330 328 335 341 340 338 337 336 337 337 339 340 343 345 348 349 350 350 350 350 349 349 348 347 346 346 346 346 346 346 346 346 345 345 344 345 345 345 344 343 342 341 338 333 331 332 333 333 333 333 332 333 334 335 334 334 334 335 335 335 335 335 334 335 338 339 339 339 339 339 339 338 339 339 340 341 341 344 346 345 344 343
314 313 312 316 321 322 323 323 321 324 328 324 323 332 336 329 327 335 340 338 336 336 336 336 337 337 338 341 344 346 347 350 351 349 350 350 349 349 348 346 346 345 345 345 345 345 345 345 345 345 345 345 345 344 344 343 343 342 338 332 331 332 332 333 333 332 332 333 334 334 333 333 332 332 332 334 335 334 335 336 336 336 337 338 339 339 339 339 339 339 339 340 342 344 344 344 343
312 312 312 312 315 319 321 322 320 323 330 331 333 336 331 327 328 334 339 337 333 334 335 336 338 337 336 338 341 344 345 348 351 350 350 350 349 349 348 347 347 345 345 345 344 345 344 344 345 345 345 345 345 345 344 343 343 343 342 337 332 330 331 332 332 331 331 331 332 333 332 332 332 330 330 332 333 334 334 333 331 330 330 332 334 336 337 338 339 339 338 338 339 342 343 343 343
310 311 311 311 313 319 327 325 318 321 327 329 334 335 327 326 332 336 338 336 333 333 333 335 337 337 337 337 338 342 345 347 350 350 350 350 350 350 349 348 347 346 345 345 344 345 344 344 345 344 345 345 345 345 344 344 343 343 344 341 335 331 330 331 332 331 330 330 331 331 331 331 332 330 329 330 331 331 331 330 328 326 326 326 327 328 330 333 335 338 338 338 338 339 340 341 341
Wind_Speed
14 17 17 16 15 13 10 6 2 1 1 1 2 1 2 2 1 2 4 4 3 3 8 15 21 15 6 5 5 6 6 6 4 3 3 10 24 27 25 27 27 26 25 24 23 22 22 20 18 17 17 16 15 14 14 13 13 13 13 13 12 11 10 9 9 8 7 7 5 5 6 6 7 7 7 8 9 10 10 9 9 9 9 9 9 10 11 9 8 8 8 7 7 8 8 7 8
17 19 18 17 14 9 5 3 1 0 1 1 2 2 1 1 1 3 5 3 3 7 15 22 21 10 7 10 10 8 7 3 3 6 12 23 29 26 26 27 27 26 25 24 23 22 21 21 19 17 17 16 15 14 13 13 13 12 12 11 11 9 8 8 7 7 6 6 6 6 6 6 6 6 7 7 9 10 10 9 8 9 10 8 8 10 12 11 8 8 7 7 8 9 9 9 9
19 19 18 15 10 6 4 2 1 1 0 2 3 2 1 1 2 2 3 3 9 15 19 22 16 8 9 10 6 4 3 2 7 15 22 30 31 28 28 26 27 26 25 24 23 22 21 20 18 17 17 16 15 14 13 13 12 12 11 10 10 9 8 7 7 6 6 6 6 7 7 6 6 6 7 8 9 10 10 9 8 9 10 9 8 9 11 12 10 9 8 8 9 9 10 10 11
19 17 14 10 6 4 3 1 1 2 1 2 3 1 1 1 3 3 4 8 16 20 19 19 10 5 6 6 4 4 4 5 14 23 28 31 31 30 28 26 27 26 25 24 23 22 20 19 18 17 17 16 15 14 13 13 12 11 11 10 10 9 8 8 7 6 6 7 7 7 6 6 6 6 8 9 10 10 10 10 9 9 10 9 9 9 10 12 11 10 9 8 9 10 10 11 11
17 13 9 6 4 2 1 0 1 2 2 2 2 2 0 2 4 3 6 11 16 16 17 15 6 5 8 7 3 2 6 10 19 26 31 32 30 31 29 27 27 25 25 23 22 21 20 19 18 17 16 15 14 13 13 12 12 11 10 10 9 9 9 8 7 7 7 7 6 6 6 5 6 7 9 10 11 10 10 10 10 9 9 9 9 9 9 11 11 11 10 8 9 10 10 11 11
15 11 7 4 3 1 1 1 2 2 3 2 2 1 0 2 4 5 9 11 12 12 14 12 7 8 8 7 6 6 8 10 23 29 33 33 31 31 29 28 26 25 24 22 21 20 19 18 17 16 15 14 13 12 11 11 10 9 9 8 9 9 9 8 8 7 7 6 6 6 5 5 6 8 9 11 11 10 10 11 10 10 9 9 9 9 9 10 11 11 9 8 9 10 10 10 10
12 8 5 3 2 1 0 2 2 2 3 3 2 1 2 2 4 7 9 8 8 9 10 11 13 11 5 4 7 8 3 9 27 32 33 34 32 31 28 27 26 24 23 21 20 19 19 17 17 15 14 13 12 11 10 9 7 7 8 8 9 9 9 8 8 7 6 6 5 6 6 6 7 8 10 10 10 9 9 10 10 10 10 10 10 9 9 10 10 9 9 9 10 10 10 10 10
10 4 2 1 1 1 1 2 3 2 2 3 2 2 4 6 7 7 6 5 5 6 9 13 15 8 3 3 5 5 3 14 31 33 33 33 32 30 28 27 25 24 22 21 20 19 18 16 15 14 13 12 11 10 8 7 6 7 9 9 9 9 9 8 7 7 6 6 5 6 6 7 7 8 10 10 10 9 9 10 10 10 10 10 9 8 8 9 9 9 9 10 10 9 10 11 12
8 3 2 1 0 1 2 3 3 2 3 3 2 3 6 9 10 8 6 4 6 8 11 15 13 6 5 8 8 5 7 19 31 33 34 32 31 29 27 26 25 24 23 21 21 19 18 16 15 14 13 12 11 9 8 8 7 9 9 9 9 9 9 8 8 7 6 6 6 6 6 7 7 8 9 9 10 9 9 10 10 10 10 9 8 8 8 10 10 10 10 10 11 10 10 11 12
6 2 1 0 1 1 2 3 2 2 3 4 3 5 9 11 10 9 6 5 9 10 11 13 10 9 10 9 7 6 9 21 33 34 33 31 30 29 27 26 24 24 23 22 21 19 18 16 14 14 13 12 10 8 8 9 9 10 9 9 9 9 9 8 8 7 6 6 6 6 6 6 7 7 8 9 9 9 9 9 10 10 9 8 8 9 9 11 11 11 11 11 11 10 11 12 12
4 2 1 1 1 2 2 3 2 2 2 4 2 5 10 11 10 8 5 6 11 11 11 11 9 14 13 7 5 7 10 23 34 34 33 31 29 29 27 26 24 23 23 22 20 19 17 16 14 13 12 11 10 9 10 10 10 10 9 9 9 9 8 8 8 8 7 7 6 6 6 6 7 7 7 8 9 9 9 9 9 9 8 8 9 9 10 11 10 10 11 11 11 11 11 12 12
2 1 1 0 1 2 2 4 4 2 3 3 2 5 10 11 9 6 4 7 12 12 12 11 12 16 9 5 8 10 13 24 33 34 33 31 30 29 27 25 24 22 22 21 20 19 17 16 14 13 12 11 11 11 11 11 10 10 9 9 9 8 8 8 8 8 8 7 7 6 6 6 7 7 7 8 8 9 8 9 9 8 8 8 8 9 10 11 10 10 10 10 10 11 11 12 12
3 0 1 0 1 2 3 4 3 1 3 2 3 8 12 9 5 6 6 9 12 10 8 12 18 16 7 7 13 14 18 27 32 33 33 32 30 29 27 25 23 22 21 20 19 18 17 15 14 13 13 12 12 11 11 11 10 9 9 9 8 8 8 8 8 8 8 7 7 7 6 7 8 7 7 8 8 8 8 8 9 8 8 8 8 8 9 11 10 9 9 10 10 11 11 11 12
4 1 0 0 1 3 4 3 3 2 2 3 5 10 11 6 5 7 7 10 8 8 9 13 19 14 10 11 14 19 22 28 32 33 33 31 30 28 26 25 23 22 21 20 19 17 17 16 15 14 14 13 13 12 12 11 11 10 9 9 8 8 8 8 8 8 8 7 7 6 6 6 8 7 7 8 7 8 8 8 8 8 8 8 8 8 8 9 10 9 9 9 10 10 10 11 11
7 2 0 1 2 2 3 1 2 3 3 4 6 10 8 6 9 7 8 10 4 12 14 13 17 8 10 11 12 26 27 30 33 32 33 30 29 27 25 24 22 22 21 21 19 18 17 16 15 15 14 14 14 13 12 12 11 10 10 9 9 8 8 8 8 8 8 7 7 7 6 6 7 7 7 8 8 8 8 8 7 7 7 7 7 7 7 7 9 10 9 10 10 10 10 10 11
8 4 1 1 2 1 2 1 1 1 2 4 8 11 7 7 9 6 7 11 10 17 12 13 16 2 12 12 13 31 31 32 35 33 33 29 28 26 24 23 22 23 21 21 19 19 18 16 16 15 15 14 14 13 12 12 11 10 10 9 9 9 8 8 8 7 8 8 8 7 7 6 7 7 8 8 8 8 8 7 7 7 7 7 7 7 7 7 7 9 10 10 11 10 9 10 11
6 4 1 1 1 1 1 2 1 1 4 6 10 11 7 5 7 6 10 14 16 16 9 14 11 4 15 13 17 35 32 34 36 34 33 30 29 26 24 23 23 23 21 21 19 19 18 17 16 15 15 14 14 14 13 12 11 11 10 10 9 9 9 8 8 8 7 8 8 7 7 7 6 7 8 8 7 8 7 6 7 6 6 6 7 7 7 6 7 8 10 10 10 10 9 10 11
4 1 1 2 2 2 2 1 1 3 5 7 10 10 9 7 6 10 12 12 14 13 10 14 5 4 16 13 23 36 32 36 36 35 34 30 30 26 25 24 24 23 21 21 19 18 18 17 16 15 15 15 14 14 12 12 11 11 10 10 9 9 9 8 8 8 8 8 7 7 6 6 6 5 7 7 7 8 7 6 7 7 6 6 6 6 7 6 6 8 9 9 9 10 10 10 10
5 1 1 2 2 2 1 3 4 2 5 8 8 9 11 9 10 13 9 8 12 11 11 14 12 14 17 19 30 34 34 37 35 36 34 31 30 27 27 26 25 24 22 21 19 18 18 18 16 16 16 15 14 14 13 12 12 11 11 10 9 9 9 9 9 8 8 7 6 6 6 6 6 5 6 6 7 8 8 7 7 7 7 6 7 6 6 6 6 7 8 8 8 9 10 10 10
5 3 1 4 4 2 1 5 5 3 8 10 7 9 9 9 12 12 9 8 8 8 11 14 19 22 23 29 33 32 35 36 35 35 33 31 30 28 28 27 26 25 23 22 20 18 18 18 17 16 16 15 15 14 13 13 12 12 11 11 10 10 9 9 9 8 7 7 6 6 7 6 6 6 6 6 6 7 7 6 7 6 6 6 6 7 6 6 7 7 7 7 8 8 8 9 9
3 5 3 3 2 1 3 6 6 7 12 11 9 11 8 9 12 10 13 10 3 7 15 17 22 27 30 34 34 34 34 34 35 33 32 31 29 28 26 26 26 24 24 23 21 19 19 19 18 18 16 15 15 14 13 13 13 12 12 11 10 10 9 9 9 8 7 7 7 6 7 7 7 7 6 5 5 6 6 6 6 5 5 5 6 6 6 6 6 6 7 7 7 7 8 8 8
2 5 7 8 6 2 2 6 9 11 13 10 10 9 8 11 9 11 16 8 3 9 16 20 24 29 33 36 35 34 33 34 35 33 32 31 29 29 26 26 25 24 24 23 22 20 19 19 19 18 16 16 15 14 14 13 13 12 12 11 10 10 9 9 9 8 8 7 7 7 7 7 7 7 6 5 5 5 5 6 5 5 4 4 5 6 6 6 6 6 7 7 6 7 7 7 7
4 5 9 12 12 5 3 8 11 14 15 12 10 8 11 11 6 12 14 5 7 11 15 22 24 28 35 38 36 35 34 34 34 33 32 31 30 28 27 27 26 25 25 24 23 21 20 20 19 18 17 17 16 15 15 14 14 13 12 11 10 10 10 10 9 8 8 7 7 7 7 7 6 6 5 6 5 5 5 5 5 4 4 4 5 5 5 5 6 6 6 6 5 5 6 6 6
6 5 8 11 13 9 8 11 13 15 15 13 12 11 11 10 6 12 11 5 11 13 14 22 24 29 35 36 36 34 34 33 32 31 30 30 29 27 27 26 25 25 25 24 24 23 22 21 20 18 17 17 17 17 16 14 14 13 13 12 11 11 10 10 9 9 8 7 7 6 6 6 5 5 5 5 5 5 5 5 5 5 5 5 5 5 5 5 5 6 6 5 4 4 4 5 6
8 8 10 9 10 11 13 14 15 15 13 12 13 10 8 9 9 11 10 8 14 13 16 24 27 32 34 34 35 33 32 31 30 30 28 28 26 26 26 26 26 25 24 25 25 24 22 21 20 18 18 18 18 18 17 15 15 14 13 12 12 12 11 10 9 9 8 8 7 6 6 5 4 4 4 5 4 4 5 5 5 6 6 6 5 4 4 4 5 5 5 4 3 3 3 4 5
8 11 12 9 8 12 17 16 15 14 14 14 11 6 5 9 9 7 9 11 15 15 19 26 30 33 33 33 34 33 33 31 31 30 28 27 26 27 27 26 26 24 24 24 24 24 22 21 20 19 19 18 18 18 17 16 15 15 14 13 12 12 11 10 9 9 8 7 7 6 5 4 4 4 4 4 4 5 5 6 6 6 6 5 4 3 2 2 3 4 4 3 3 3 3 4 5
7 10 12 12 9 12 19 18 16 13 13 15 11 3 4 8 6 4 9 13 16 17 20 28 31 33 31 32 33 32 33 32 31 29 27 27 27 28 28 27 27 24 24 23 23 23 22 22 20 20 19 19 19 19 17 16 15 15 14 14 12 12 11 10 9 8 7 7 6 5 5 4 4 4 3 3 4 5 6 6 6 6 5 4 3 2 2 2 2 3 3 2 2 3 3 4 5
13 12 8 6 1 9 14 14 16 13 8 13 14 4 2 5 3 4 13 16 17 19 22 28 32 31 30 31 32 32 32 31 30 29 28 28 27 28 29 28 27 25 24 23 22 22 22 22 21 20 20 19 20 18 18 17 15 15 14 14 13 12 11 10 9 8 7 6 6 5 4 4 3 3 3 3 3 4 5 6 6 6 5 4 3 3 3 3 3 3 3 3 2 3 3 4 5
14 10 3 4 7 7 9 9 14 10 5 14 17 5 3 5 3 4 16 19 19 22 23 27 31 30 29 30 31 31 32 31 31 31 29 26 26 28 28 27 26 25 24 23 22 22 22 22 21 21 20 20 20 18 18 17 16 15 14 14 13 12 11 10 9 8 7 6 5 5 4 4 3 3 3 3 3 3 4 5 5 5 5 5 4 4 4 4 4 4 4 3 3 3 3 4 6
9 4 2 4 4 3 6 7 11 6 6 19 14 1 4 7 4 5 16 23 23 23 23 27 30 28 28 30 31 31 32 32 32 32 29 25 25 26 27 26 25 24 23 23 23 23 22 22 22 21 21 20 20 19 18 17 16 16 15 14 13 12 11 10 10 8 7 5 5 5 4 4 4 3 3 4 4 4 5 4 4 5 5 5 5 5 5 5 5 5 5 4 3 3 3 4 5
2 2 2 2 1 2 5 7 9 3 7 20 9 2 3 4 6 9 16 26 26 24 24 26 30 29 28 31 32 32 34 34 33 32 29 25 24 25 26 26 25 24 23 23 23 23 22 23 22 22 22 21 20 19 18 17 16 16 15 15 14 12 11 10 10 8 6 5 4 4 5 5 4 4 5 5 5 5 5 6 5 5 5 5 5 5 5 5 5 5 5 5 5 4 4 4 5
2 1 2 2 2 2 4 6 9 3 6 17 6 1 4 3 8 13 17 25 25 24 25 26 29 31 29 31 33 33 34 34 33 32 30 27 24 24 25 26 26 25 24 23 23 23 23 22 22 22 22 21 21 19 18 17 17 16 16 15 14 12 11 11 9 8 7 5 4 4 4 5 5 5 5 5 6 5 5 6 6 5 5 4 5 4 4 5 5 5 5 5 6 5 5 5 4
3 2 2 2 3 2 3 6 9 6 7 11 7 1 2 2 9 17 20 23 22 21 24 26 29 32 30 30 33 33 33 33 33 33 32 29 26 24 23 24 25 24 24 23 23 24 24 23 23 23 22 21 20 19 18 18 17 17 16 16 14 12 11 10 9 8 6 5 4 4 4 5 5 5 5 6 6 6 6 6 5 5 4 4 4 4 5 5 6 5 5 5 6 6 6 6 5
4 2 1 1 2 2 3 4 8 9 8 8 8 4 4 3 7 18 21 23 23 21 23 26 28 32 31 30 32 33 33 34 35 35 34 32 29 26 23 22 23 24 24 24 24 23 23 23 23 23 23 21 20 20 19 18 18 17 17 16 15 13 12 10 9 8 6 5 4 4 4 5 5 5 6 6 6 6 7 6 6 5 4 4 4 5 5 6 6 6 5 5 6 7 8 7 5
1 2 2 2 2 1 2 3 6 9 7 7 7 7 10 5 5 16 21 23 24 22 24 25 27 30 30 29 32 33 34 36 38 38 36 33 30 28 25 22 22 23 24 24 24 24 23 24 23 23 23 22 21 20 20 19 19 18 18 18 17 15 14 12 11 8 7 6 5 4 4 5 5 5 6 6 6 6 6 6 6 6 5 4 4 5 6 6 6 6 5 5 6 7 8 7 5
5 3 3 1 2 2 3 2 5 11 6 5 9 9 12 7 4 11 18 23 23 22 23 24 25 29 29 29 31 33 35 37 39 38 37 35 32 29 27 24 22 22 24 25 25 25 25 24 24 24 24 23 23 22 22 22 21 20 20 20 19 17 16 14 12 9 7 6 5 5 4 4 5 5 6 6 6 5 5 5 6 6 6 5 5 6 6 5 6 6 6 6 7 7 7 6 6
3 2 2 2 1 3 4 3 5 11 7 6 11 10 9 6 5 9 15 19 19 20 21 23 25 27 29 29 30 33 36 37 37 37 37 36 33 30 28 26 24 23 24 26 27 27 26 25 26 25 25 25 25 24 25 24 24 23 22 22 20 18 16 15 12 10 8 6 6 6 5 5 5 5 5 5 6 5 4 5 6 6 6 5 5 7 6 6 6 7 7 7 7 7 7 6 6
1 1 0 1 2 3 5 3 4 9 7 5 7 7 7 6 5 8 12 13 15 20 22 24 26 26 27 29 30 32 33 33 33 35 37 36 35 33 30 29 27 25 25 26 28 27 27 27 26 26 25 26 26 26 26 25 25 24 23 21 19 18 16 15 12 9 8 7 7 7 6 6 6 7 6 5 5 5 4 5 6 6 6 6 6 7 7 7 8 8 8 8 8 8 7 7 6
2 1 1 2 2 3 4 4 3 5 6 3 4 7 7 5 5 8 12 13 14 20 23 24 26 25 26 29 30 31 31 30 32 35 36 37 37 35 33 32 29 27 25 25 27 28 28 28 27 27 26 26 27 26 26 26 24 23 22 20 19 18 16 13 11 8 7 8 8 8 8 7 7 7 6 5 5 5 5 6 6 6 7 7 7 8 9 9 9 9 9 9 8 8 7 7 6
2 3 2 3 2 1 2 4 4 2 2 2 4 5 4 2 4 7 14 17 14 17 20 22 26 27 28 29 30 31 31 32 33 35 36 37 38 37 36 34 31 29 27 26 27 28 30 30 29 28 28 27 27 27 27 26 25 23 22 21 19 18 16 13 12 10 9 9 9 9 9 8 8 7 6 5 5 5 5 6 7 6 7 8 8 9 10 11 11 10 10 10 9 8 7 6 5
2 4 4 3 2 3 4 3 2 3 3 1 4 1 4 2 5 5 9 14 13 15 18 20 25 28 27 26 27 30 33 34 34 35 37 38 38 38 37 36 33 32 30 28 28 29 30 31 30 30 29 28 27 27 27 27 26 25 24 22 21 20 18 16 15 14 13 12 11 10 9 9 8 7 6 5 5 5 6 6 7 6 6 7 8 10 11 12 11 11 11 10 9 7 6 5 4
3 4 7 7 6 6 4 1 2 4 3 3 3 2 4 3 5 5 6 9 10 13 17 20 25 27 26 26 27 29 32 34 35 36 37 37 38 39 38 38 36 35 32 30 28 28 29 30 31 30 30 30 29 28 28 27 27 27 26 24 23 23 22 21 19 17 15 14 11 10 9 8 8 8 7 6 6 6 7 7 7 6 6 6 8 10 12 12 12 12 11 10 9 7 6 5 4
2 4 8 9 8 6 5 3 2 1 2 4 2 2 3 4 4 6 6 8 10 11 13 18 24 26 27 30 29 28 30 33 35 35 36 37 39 40 40 39 38 37 33 30 29 28 28 29 31 32 31 31 31 30 29 29 29 28 27 25 24 23 23 22 19 17 15 13 11 9 9 9 9 8 8 8 8 7 8 8 7 6 6 6 7 8 10 11 12 12 12 11 10 8 6 5 5
3 5 6 8 7 6 6 6 4 3 2 3 1 3 1 4 4 5 7 7 8 10 11 15 22 26 29 31 33 31 31 33 35 36 37 38 40 41 41 41 39 37 34 32 31 31 30 29 30 32 32 31 32 32 31 30 30 29 28 27 25 24 22 20 18 17 16 14 12 11 10 10 10 10 9 9 9 9 8 8 7 6 6 7 7 8 8 10 12 13 13 12 11 9 7 6 6
5 6 7 7 7 6 5 6 4 2 1 3 3 2 1 4 4 2 8 7 9 13 14 13 19 26 30 32 35 35 33 33 36 38 39 39 41 42 42 41 40 37 36 35 33 32 31 30 29 31 32 32 32 33 33 32 30 29 28 27 26 25 23 20 18 17 17 15 14 13 12 12 12 11 10 10 10 9 8 7 7 6 6 7 7 7 8 9 11 13 13 13 12 10 9 8 7
4 5 5 2 3 3 3 5 4 2 1 4 5 4 2 4 4 1 6 7 10 13 12 13 20 27 31 33 36 37 35 34 36 39 41 42 42 42 42 42 41 39 38 37 35 33 33 32 30 30 32 33 33 33 33 32 31 30 29 28 27 26 25 23 21 19 18 17 16 15 14 13 13 12 11 11 11 10 9 8 8 7 7 7 7 7 8 9 10 12 13 14 13 11 10 9 8
2 3 3 3 4 3 3 1 3 3 1 6 7 8 5 2 4 3 5 5 8 10 8 10 17 24 30 33 36 38 38 36 37 39 41 42 43 42 42 43 42 42 40 39 38 36 35 35 33 31 30 32 34 34 34 33 32 31 29 28 27 27 27 25 23 21 20 19 18 17 15 14 14 13 12 12 11 11 10 10 9 8 8 8 8 8 8 9 9 10 12 13 13 12 11 10 9
2 2 4 3 2 3 4 4 2 2 4 6 4 6 5 1 4 3 4 7 7 6 8 11 16 24 32 36 37 39 40 39 38 39 41 41 42 42 42 44 44 44 43 42 42 40 38 37 36 33 31 31 34 35 35 34 33 32 31 29 28 27 27 26 25 23 22 21 19 18 16 15 15 15 14 13 12 11 11 10 10 9 9 8 8 7 8 8 9 9 10 12 12 12 11 10 9
4 4 5 4 1 2 0 1 1 3 4 4 1 4 3 3 2 4 7 10 11 8 8 11 17 26 33 37 39 40 40 41 39 39 42 42 43 43 44 45 45 45 46 45 44 43 41 39 38 36 33 31 32 34 36 35 34 33 32 30 29 28 27 27 26 24 23 22 20 20 19 17 17 16 16 14 13 12 11 11 10 10 9 8 8 8 8 8 9 9 10 11 11 12 11 10 9
4 3 5 4 3 2 3 2 0 2 4 4 1 3 1 2 1 5 8 9 13 15 16 14 13 23 31 35 39 40 39 41 42 40 41 43 44 45 46 46 47 47 47 46 46 45 43 42 40 39 36 32 31 32 34 36 35 34 33 31 30 29 28 27 26 25 24 23 22 22 21 19 17 17 16 14 13 13 12 11 11 10 9 9 9 8 8 9 9 9 9 10 10 11 11 10 10
3 2 4 3 4 4 3 3 3 3 3 3 2 3 3 3 4 3 7 11 18 22 24 24 21 13 25 33 33 36 39 39 41 42 42 44 45 46 47 47 48 48 48 48 47 46 45 44 43 41 38 36 33 31 32 34 36 35 33 32 32 30 28 27 27 25 25 23 23 23 22 21 19 17 16 14 14 14 13 12 11 11 10 10 10 9 9 10 10 9 9 9 9 9 9 9 10
2 1 4 3 3 4 2 3 5 4 3 1 1 3 2 4 5 7 13 14 20 25 27 28 29 24 13 28 31 33 38 39 41 42 43 44 44 45 47 48 49 49 49 49 49 48 47 46 45 43 40 38 35 33 31 32 34 35 34 33 33 32 30 29 28 26 26 24 23 23 23 23 21 18 17 15 15 15 14 13 12 12 11 11 11 10 10 11 10 10 10 9 8 8 8 8 9
2 3 2 2 3 4 2 1 1 3 4 2 1 1 4 2 1 11 18 16 18 22 25 25 26 30 17 15 29 34 37 39 42 44 44 44 44 45 47 48 49 49 50 51 50 50 49 47 46 44 42 40 37 35 32 30 32 34 35 34 34 33 32 31 29 28 26 26 24 23 23 24 22 20 18 16 16 15 15 14 14 13 12 12 12 11 10 10 11 11 11 10 9 8 8 8 8
2 2 1 3 2 3 2 1 2 4 3 2 2 3 5 4 1 9 18 19 19 18 18 22 25 28 27 17 16 28 37 40 42 44 44 44 44 45 47 48 49 50 50 51 51 50 49 48 46 45 44 43 40 37 34 31 30 32 34 35 34 34 33 32 30 29 27 27 26 24 24 24 23 21 19 18 17 16 16 16 15 14 13 13 12 11 11 10 11 11 12 12 10 10 10 9 8
4 2 2 1 3 1 1 2 2 2 2 1 3 3 4 4 3 10 16 17 18 17 15 17 22 25 26 27 25 20 31 37 40 41 41 43 45 46 47 48 49 50 50 50 50 50 50 49 48 46 44 43 40 38 36 34 32 31 32 34 34 34 34 32 32 30 29 29 28 26 24 24 23 22 20 19 18 17 18 17 16 15 14 13 13 12 12 12 12 12 12 12 11 12 11 10 9
5 4 4 3 2 2 1 1 3 2 3 3 1 3 3 3 4 8 12 12 13 15 14 13 18 24 25 27 31 25 25 34 38 41 42 43 45 46 47 48 49 49 49 49 49 50 50 50 49 47 46 44 42 40 37 35 34 32 31 33 34 35 34 34 33 32 31 30 29 27 26 24 24 23 22 21 20 19 19 18 17 15 15 14 14 13 13 13 13 13 12 12 12 13 12 11 10
5 5 5 5 3 1 2 2 2 2 3 3 2 3 1 3 3 5 8 10 11 12 12 14 19 25 26 30 36 29 20 33 38 41 43 43 44 45 46 47 48 48 48 48 49 50 50 50 50 49 48 46 45 43 40 38 35 33 32 32 33 34 35 35 34 34 33 31 30 29 27 25 25 24 23 22 21 20 20 19 17 16 15 15 14 14 14 14 14 14 13 13 13 13 13 12 11
5 4 4 4 3 2 3 2 3 2 3 2 3 4 2 2 2 3 5 7 10 13 13 15 22 29 30 34 40 37 17 21 34 37 39 41 42 42 43 44 44 46 47 48 49 49 50 50 50 50 49 48 47 45 42 40 37 36 34 32 32 33 35 36 36 35 34 33 32 31 29 28 26 26 25 23 22 21 21 20 18 17 16 15 15 14 15 15 15 16 15 15 14 14 14 14 13
Wind_Direction
144 141 137 138 138 137 143 142 111 353 85 304 253 262 242 173 137 143 130 137 119 123 135 143 148 140 132 160 150 105 99 142 161 152 169 153 152 159 156 154 155 153 151 147 146 143 141 139 140 145 145 146 148 151 153 152 149 147 145 142 142 138 135 132 131 133 131 124 118 115 107 102 99 101 105 109 112 110 114 115 114 118 118 119 119 119 118 112 114 118 118 119 116 116 118 118 119
145 141 137 136 135 133 149 142 65 356 55 291 241 201 209 110 149 167 147 144 118 133 137 141 143 129 122 136 127 94 75 97 152 140 138 145 152 158 157 155 154 154 152 150 148 146 143 141 144 148 148 150 152 155 157 154 150 148 147 146 148 147 146 143 142 141 135 126 122 119 108 99 94 96 102 109 115 114 117 116 114 116 111 110 110 112 111 109 108 109 113 117 117 116 114 114 117
147 141 137 135 130 121 130 97 73 120 49 270 262 208 144 117 168 140 122 103 125 134 134 140 135 107 112 121 115 95 89 88 139 138 138 149 157 158 158 156 154 154 153 152 151 149 146 143 146 150 151 154 155 157 156 152 150 149 150 152 156 158 158 156 155 151 140 128 120 112 104 99 97 103 105 108 118 121 121 118 117 114 109 108 104 104 108 110 105 104 110 112 112 110 111 117 120
145 138 135 135 127 113 109 59 109 133 183 232 276 245 165 140 131 102 98 113 134 137 136 141 127 89 105 112 107 89 112 132 146 145 145 155 161 158 159 158 155 156 155 154 153 150 146 144 148 152 153 154 153 154 152 151 151 151 153 158 162 164 163 162 158 146 131 120 113 106 102 104 106 111 110 110 118 123 123 125 124 114 110 109 104 99 103 107 104 105 102 97 100 101 105 113 118
143 137 138 138 132 112 97 100 161 166 218 207 268 270 207 118 122 106 107 124 140 141 143 147 120 89 95 91 79 108 140 146 152 151 150 157 161 158 159 159 157 157 157 155 154 151 148 147 150 152 153 152 151 151 152 153 154 155 156 159 162 160 155 151 142 129 121 115 109 106 105 109 109 113 116 117 122 127 128 129 123 113 111 108 104 100 100 103 102 100 97 92 94 97 100 104 107
146 142 136 122 119 134 153 258 216 205 250 228 250 270 132 127 120 109 112 121 136 142 145 147 134 112 93 68 57 118 140 153 156 154 153 157 160 159 159 159 159 159 158 156 155 154 152 151 150 151 152 151 152 151 153 154 154 155 156 157 154 148 141 136 131 127 123 115 110 108 108 103 101 109 115 119 123 130 128 123 118 113 112 107 105 103 98 97 97 97 98 97 93 94 97 97 101
147 142 135 115 83 107 197 272 241 235 244 234 247 197 157 155 122 115 123 125 129 141 143 146 142 118 87 75 77 105 111 166 159 155 156 157 160 160 160 161 161 161 158 156 156 156 154 152 151 150 151 150 149 149 150 151 151 150 149 149 146 141 137 135 134 134 127 118 114 109 107 102 103 110 113 116 120 124 121 115 113 113 113 108 105 102 96 93 94 99 102 98 92 96 101 103 107
151 139 139 132 60 147 223 252 240 231 216 238 254 183 177 168 145 134 146 141 139 145 136 146 148 117 56 112 97 102 121 166 159 155 157 158 161 162 162 163 163 162 158 157 156 156 154 152 150 148 148 148 148 147 149 153 151 145 143 144 145 145 143 141 139 136 130 124 119 111 107 105 106 110 112 116 117 118 115 111 113 114 111 107 104 102 100 100 101 101 100 98 95 99 104 106 106
161 143 134 128 240 218 236 244 235 211 216 226 221 203 184 167 154 150 153 130 133 131 131 149 156 131 95 96 98 126 150 164 158 155 158 160 162 163 164 165 165 163 159 158 157 155 153 151 151 149 150 152 153 150 152 157 154 147 145 150 151 150 148 145 144 140 138 133 123 113 108 108 110 110 111 113 114 115 114 113 116 111 104 101 103 105 105 106 104 97 92 91 90 91 94 97 99
163 159 198 295 217 282 257 248 233 216 220 207 214 205 182 167 155 151 141 120 136 123 129 149 143 124 114 93 96 139 158 163 158 156 160 161 163 164 165 166 166 164 159 158 157 155 152 153 156 153 156 159 158 158 161 161 157 153 152 157 156 154 154 150 149 148 143 133 122 113 111 113 113 111 108 111 115 117 115 114 112 103 99 101 104 105 107 106 100 93 89 85 84 81 82 88 93
160 197 242 326 241 291 262 274 274 255 206 188 197 179 175 166 150 145 118 120 139 124 132 144 124 118 110 87 103 138 158 163 159 158 161 163 165 165 166 166 166 164 160 159 157 156 155 157 160 158 161 163 162 165 167 161 158 157 156 163 160 158 159 154 153 150 143 132 124 118 120 119 114 112 109 111 115 118 118 113 108 103 103 101 101 104 108 108 99 92 87 81 80 79 77 80 87
185 185 175 323 264 274 264 296 299 264 154 166 149 138 158 158 150 152 126 130 138 126 143 157 144 130 104 86 130 144 157 163 162 159 162 165 166 166 167 166 165 165 162 161 158 159 160 160 162 162 167 167 167 168 165 160 160 161 160 164 162 162 162 157 155 150 146 137 133 129 126 122 115 114 110 111 114 118 119 117 114 111 107 97 98 103 108 109 101 91 84 79 76 77 76 75 80
226 132 123 351 256 272 290 302 302 242 141 107 110 140 150 146 145 161 135 133 139 131 155 165 154 139 107 119 140 151 158 164 164 161 164 166 167 167 168 166 165 167 166 165 162 163 165 165 166 167 171 170 168 167 165 162 161 163 164 166 166 165 163 159 157 154 153 144 140 134 129 124 117 116 115 117 116 118 118 118 117 114 111 101 97 98 104 109 104 91 81 79 75 75 76 74 79
224 310 126 189 289 296 305 304 308 345 92 87 112 140 148 127 134 154 135 133 133 136 151 163 157 137 122 133 147 160 161 165 165 162 166 167 168 168 168 167 168 171 170 168 166 168 169 169 171 171 173 171 170 167 165 165 162 167 169 168 168 167 166 164 161 159 155 145 139 131 127 125 118 119 120 119 116 117 119 119 120 118 116 110 105 100 100 106 106 98 86 81 78 76 76 76 77
224 287 6 237 309 305 292 294 319 11 86 123 128 138 131 108 133 132 133 136 104 139 141 154 158 138 152 159 165 166 163 166 165 165 167 168 168 169 170 169 171 174 173 171 172 173 170 171 173 171 173 172 172 168 167 168 165 172 174 172 169 168 168 166 166 162 156 144 138 131 128 127 121 123 122 121 119 118 121 122 124 122 120 118 116 111 103 103 104 102 94 86 83 80 77 76 77
233 256 351 279 300 304 266 193 344 30 120 130 135 140 112 99 133 109 129 135 121 143 139 153 164 200 176 174 175 167 163 165 166 168 169 169 170 170 172 173 175 176 174 173 174 175 171 172 173 172 173 173 174 169 170 171 167 174 174 172 169 168 168 166 165 162 160 148 141 141 139 140 132 129 124 122 121 118 119 120 123 120 119 122 119 116 111 107 104 103 98 92 90 87 82 78 76
246 249 286 309 280 288 246 175 249 152 143 140 146 150 123 113 136 112 129 132 131 146 144 160 180 249 176 176 174 165 161 165 167 170 171 170 171 172 174 177 178 176 174 174 175 176 174 173 174 175 174 176 177 172 172 172 171 176 173 171 169 167 166 163 163 161 164 154 149 152 146 147 141 134 128 124 121 119 120 119 118 115 115 118 117 115 111 111 110 105 101 97 96 93 88 84 79
240 243 227 266 250 228 223 168 165 141 143 153 159 158 138 138 143 127 125 126 133 136 136 154 162 164 165 168 166 161 160 166 169 172 173 172 173 174 176 178 178 175 173 176 178 178 176 175 177 178 175 178 180 174 173 173 174 177 171 170 169 166 163 161 162 163 166 160 158 157 149 149 147 142 132 129 131 124 123 124 119 115 116 113 112 111 109 115 117 109 105 100 96 96 95 91 85
220 270 322 240 231 214 207 132 139 144 153 151 158 159 145 145 149 140 131 131 136 122 126 138 119 127 148 155 159 159 161 167 172 175 175 174 175 177 177 178 178 176 174 178 179 179 179 177 179 179 177 180 180 174 173 174 177 175 170 169 168 166 164 161 162 165 167 164 163 158 152 150 149 152 137 134 139 129 127 129 120 117 120 115 112 110 109 116 120 115 109 105 99 97 99 96 93
208 219 291 244 235 237 205 153 161 190 163 151 146 150 141 146 151 146 139 138 141 133 140 137 128 136 146 153 157 159 163 169 174 177 178 176 178 180 179 179 178 177 177 179 179 180 182 180 180 180 179 182 180 175 175 176 177 174 171 170 169 167 166 165 163 163 164 163 168 162 154 153 153 152 143 146 142 129 127 124 114 115 121 120 115 109 111 117 122 120 113 111 103 94 92 93 95
183 200 230 260 263 248 208 169 160 166 159 149 143 142 134 153 157 149 142 140 156 160 161 155 147 150 152 156 159 162 167 171 176 180 181 179 180 183 183 182 180 179 179 180 180 181 184 182 182 181 181 185 182 176 176 177 177 175 173 170 170 170 168 168 163 161 162 161 168 165 158 157 157 152 146 152 144 132 126 118 116 122 125 122 116 107 111 116 121 124 118 117 105 92 87 88 94
245 237 249 268 288 314 193 162 152 152 148 144 149 144 140 154 156 159 157 151 174 167 171 168 161 161 160 160 162 166 170 173 178 182 183 182 183 184 185 184 183 183 183 183 183 182 184 184 184 183 183 186 183 177 179 180 179 178 175 171 172 171 167 166 163 162 162 161 165 166 162 159 159 156 150 151 144 138 126 118 122 129 132 128 121 113 110 110 116 121 117 115 103 91 88 87 90
251 260 255 258 258 254 181 164 157 152 149 153 158 146 143 146 145 172 171 147 151 160 173 173 169 170 166 164 167 170 174 177 180 183 185 186 185 187 187 187 187 188 188 187 186 185 184 185 184 184 184 187 184 181 183 182 180 178 175 173 173 171 167 166 165 163 161 161 165 165 162 160 162 161 155 153 146 142 129 124 129 130 135 129 122 117 108 103 108 116 114 108 97 89 88 86 87
229 262 259 257 251 230 190 175 166 162 160 162 158 149 153 155 151 174 176 150 153 152 167 175 171 170 167 167 171 173 177 179 182 185 188 189 189 191 191 190 191 192 193 191 191 189 187 186 185 184 185 187 187 184 184 183 181 178 176 176 174 174 171 168 165 163 161 164 167 163 159 160 164 158 151 152 146 145 140 136 134 126 125 118 116 113 107 103 103 111 111 107 98 87 84 85 90
218 247 258 258 252 221 188 174 169 167 161 161 159 148 159 167 156 168 181 166 159 151 161 173 168 167 169 170 173 175 178 180 184 187 190 192 194 194 195 195 193 195 198 196 194 192 190 189 187 186 185 188 188 186 184 183 183 179 176 177 177 176 172 170 167 165 165 167 169 166 162 159 156 149 144 148 147 147 144 142 140 132 126 118 117 111 109 114 109 112 112 113 108 91 90 94 96
216 237 252 259 248 199 176 166 165 166 156 157 155 132 140 164 155 166 192 175 162 157 161 171 168 167 172 174 176 178 181 183 186 189 191 194 197 198 198 197 197 197 199 200 196 191 190 190 188 187 186 188 188 187 185 184 183 179 176 177 178 176 173 172 168 168 170 168 172 173 167 156 147 141 138 147 148 146 146 146 144 143 142 137 134 131 136 137 123 123 121 120 112 95 103 102 93
263 262 261 268 254 189 168 158 159 160 155 153 143 119 126 153 162 181 196 181 170 163 161 170 170 169 175 177 179 181 184 186 188 190 193 196 199 201 200 199 200 199 198 201 197 192 191 190 188 187 187 187 187 186 185 183 181 177 175 177 178 176 174 172 169 168 169 167 171 173 166 156 150 145 143 154 155 151 152 151 149 151 159 165 171 179 190 186 152 138 138 136 113 94 105 108 94
293 298 302 313 329 156 156 150 155 152 151 150 135 131 148 156 203 202 185 181 176 167 161 171 172 171 177 178 180 184 186 188 191 194 195 197 198 200 201 200 200 199 199 199 197 195 193 191 189 187 187 187 187 186 183 181 178 175 175 177 176 176 173 170 169 164 163 168 172 171 166 160 157 156 156 170 173 164 163 161 161 164 177 191 200 204 203 200 182 161 159 155 126 98 104 112 100
299 299 330 53 69 120 148 143 158 154 147 152 136 127 223 207 232 181 183 180 174 171 164 171 174 174 179 180 181 185 188 190 194 198 199 198 196 197 201 201 200 199 197 198 198 197 195 194 190 187 187 186 186 184 181 179 176 174 176 177 177 179 176 171 168 162 164 174 178 177 177 175 172 177 186 200 200 198 188 179 178 181 194 210 219 220 211 203 194 180 168 156 135 113 104 105 98
301 310 103 119 62 119 159 147 162 151 146 160 150 146 232 221 212 169 184 179 172 174 171 173 176 177 179 182 184 186 190 194 197 201 202 202 200 199 201 203 203 201 197 197 198 197 196 195 191 188 187 186 185 183 180 178 175 176 176 178 180 182 179 175 170 167 173 179 183 186 185 189 196 208 224 230 225 225 226 222 213 205 206 214 224 225 218 208 198 189 179 161 140 129 115 106 99
310 15 52 114 70 149 155 150 165 129 156 171 166 313 247 240 203 186 188 181 176 176 175 176 179 180 181 183 186 188 193 198 201 204 204 205 204 202 202 204 205 204 199 197 197 197 196 196 192 189 187 186 186 183 181 178 177 178 178 180 182 182 180 178 175 176 181 179 180 189 191 195 205 218 227 231 229 228 232 238 235 227 218 216 222 223 218 207 195 192 188 170 148 137 130 118 108
22 65 323 321 63 136 144 159 181 141 164 186 184 324 263 279 193 191 190 183 181 178 179 181 181 184 184 184 188 190 195 199 203 206 207 208 205 204 204 205 205 205 202 199 198 197 197 197 194 191 189 188 186 184 181 178 179 179 180 183 185 185 183 180 180 181 179 173 174 187 195 202 207 214 219 218 219 218 220 227 233 233 225 218 215 211 208 199 191 189 186 174 157 141 138 133 118
357 90 210 270 91 131 159 168 195 159 143 199 222 236 266 295 182 185 187 186 185 184 185 185 184 186 186 186 189 192 195 197 202 207 209 210 208 206 206 207 207 206 204 201 199 198 198 198 196 194 191 188 187 185 181 179 180 181 182 186 189 191 189 184 183 179 171 164 167 179 191 201 205 205 206 205 207 207 208 213 224 227 221 218 209 199 195 191 188 185 179 173 164 148 145 144 132
328 33 102 270 122 149 163 167 196 167 144 197 223 238 258 290 167 174 182 186 187 188 191 190 186 187 189 188 189 192 194 197 201 206 209 212 210 208 207 209 208 208 208 205 202 200 199 199 198 197 194 190 189 185 182 181 181 183 185 190 194 195 191 186 186 183 174 167 169 174 185 196 198 196 197 197 198 201 204 209 216 217 216 221 213 202 194 188 185 180 172 166 161 151 148 147 141
120 67 60 341 347 39 166 177 190 169 164 192 198 236 252 267 156 170 181 185 189 192 193 193 189 189 191 190 190 193 195 199 204 206 209 212 212 211 210 209 210 211 211 209 206 203 202 202 200 199 196 193 190 186 183 183 183 186 188 193 197 196 190 187 189 188 181 180 182 181 187 192 193 196 197 194 192 194 199 207 212 211 216 223 214 203 192 185 182 176 169 159 154 151 149 147 146
127 118 117 138 328 309 225 226 193 172 170 192 189 221 238 234 176 178 184 185 191 195 194 194 193 192 193 192 193 195 197 202 205 206 208 211 212 213 211 211 213 213 213 213 210 206 204 204 202 201 199 195 192 188 185 185 186 188 191 196 198 195 190 190 190 190 187 187 196 199 196 198 198 202 201 194 189 189 194 202 208 209 211 211 200 192 183 178 177 174 169 159 154 155 152 151 154
112 106 118 167 217 287 261 261 213 176 171 213 202 216 234 217 195 190 185 185 192 197 196 197 196 194 194 194 195 197 200 204 205 206 208 211 213 214 213 213 214 215 215 215 214 210 206 205 205 202 199 197 195 191 188 188 189 190 194 197 199 195 192 192 191 190 191 193 204 206 200 202 208 209 205 194 187 188 188 190 197 200 198 195 188 182 178 174 175 175 172 165 162 161 159 159 164
113 129 74 270 198 259 262 267 238 181 182 233 205 216 240 217 191 185 180 185 198 199 197 198 199 197 195 196 198 200 203 204 203 205 207 210 212 214 215 214 214 216 216 215 215 213 209 208 208 205 201 199 198 195 192 193 193 194 198 200 200 198 196 196 193 191 196 201 206 203 198 201 208 211 207 195 189 188 180 177 182 186 184 182 183 183 182 178 176 177 177 173 170 169 169 170 170
128 128 144 237 239 285 288 308 318 178 191 261 191 204 237 223 182 173 180 194 206 205 204 201 199 200 199 198 198 199 201 202 203 205 206 208 211 213 214 215 216 217 218 217 216 216 213 211 209 208 205 202 200 198 197 198 198 198 201 203 204 203 201 198 195 197 203 205 203 199 199 201 206 210 207 199 195 190 179 174 174 175 177 178 181 184 184 182 182 181 179 179 176 177 179 178 176
156 150 155 230 258 319 282 310 352 107 181 284 171 195 258 239 173 172 186 195 203 210 213 210 204 204 205 202 200 198 199 201 203 204 206 207 209 211 214 216 217 217 218 218 217 216 215 213 211 209 208 205 203 201 201 201 202 202 202 204 207 208 207 203 202 202 200 200 200 200 200 201 204 206 207 206 200 192 184 181 176 172 171 173 179 185 186 185 186 184 182 183 182 184 187 188 191
232 188 178 193 211 209 223 261 1 42 355 343 109 72 309 232 180 184 184 187 196 204 208 213 211 210 210 208 205 202 201 202 203 204 206 207 208 210 214 217 218 218 219 219 219 218 216 214 213 211 210 208 206 204 202 202 203 203 203 203 206 211 210 207 207 201 194 194 197 199 200 201 204 204 207 209 204 197 192 189 185 178 171 170 177 186 191 191 191 189 188 189 191 193 194 197 205
298 220 193 186 200 219 222 201 65 37 342 258 123 61 298 257 200 202 172 175 193 196 199 209 211 211 212 212 210 207 205 204 206 206 207 208 209 211 215 218 218 219 221 221 221 220 218 217 215 214 212 210 209 207 204 204 205 205 205 204 206 209 208 207 206 198 193 194 194 197 202 204 206 206 207 208 205 203 198 198 197 191 184 180 180 186 193 196 196 194 194 197 202 203 201 203 219
296 243 196 186 197 207 194 162 129 100 273 256 176 149 275 298 238 211 175 179 194 191 199 207 208 209 211 213 212 210 208 206 207 208 208 209 210 212 214 217 219 221 222 222 222 221 220 219 217 216 215 212 211 210 208 208 208 208 208 210 211 212 211 209 205 198 196 195 196 201 207 208 209 209 209 208 207 205 200 199 202 200 197 195 194 193 196 199 200 200 201 207 211 213 217 223 234
236 238 177 172 194 199 187 172 180 213 259 322 8 132 266 303 262 204 163 177 202 204 209 207 206 208 211 214 214 212 211 208 207 208 209 211 212 213 215 217 220 223 225 223 222 221 220 220 219 217 217 215 212 211 211 211 211 211 211 212 215 217 217 213 206 201 201 201 202 206 210 210 211 211 210 210 209 208 205 200 201 204 204 204 205 202 202 204 206 208 211 215 218 221 231 237 238
238 216 172 169 182 178 172 175 197 223 47 316 293 138 178 281 284 167 154 179 211 215 215 208 205 207 210 214 215 215 215 213 211 210 211 212 213 215 216 219 223 225 226 225 223 222 221 221 219 218 218 217 215 213 213 214 214 214 213 214 216 219 221 217 211 208 207 208 208 208 209 209 209 209 209 211 211 212 213 209 206 207 205 207 207 204 206 209 211 214 216 217 220 226 236 237 235
220 174 164 132 121 130 135 164 170 94 95 250 239 177 173 278 292 144 162 200 218 216 216 211 208 207 209 214 216 216 217 216 215 213 213 214 216 217 218 220 224 225 226 227 226 225 223 221 220 219 219 218 218 217 215 216 216 216 215 215 217 219 221 218 215 214 213 212 212 209 207 207 207 208 208 210 213 214 217 218 216 214 209 207 206 204 206 210 213 216 216 217 221 230 239 237 234
160 119 109 54 35 53 65 85 106 88 257 252 223 183 160 296 279 213 188 226 225 212 211 210 212 212 211 213 216 216 217 217 217 215 216 216 217 218 218 219 222 224 225 227 227 226 225 223 221 219 220 219 219 219 219 218 217 218 217 216 218 220 222 220 216 215 214 213 212 208 206 207 207 209 211 213 215 216 216 219 221 220 215 209 205 204 204 207 212 217 218 218 223 232 239 237 234
96 126 116 103 353 25 35 4 58 132 250 268 233 164 137 205 269 270 301 318 304 242 214 204 204 209 212 213 214 215 215 216 217 215 215 216 215 216 216 218 220 222 223 225 226 227 226 225 223 221 219 219 220 221 221 220 219 220 219 219 220 221 223 223 220 217 215 214 212 207 205 208 209 209 212 214 216 217 217 219 222 220 218 212 207 204 204 206 210 216 220 220 223 230 236 235 232
64 104 103 106 16 28 110 284 147 198 243 274 228 127 126 213 241 355 354 346 338 316 278 243 217 210 211 212 213 213 213 214 215 215 214 214 214 214 215 216 217 219 222 224 225 226 226 226 224 222 219 217 219 221 223 222 221 221 221 221 221 222 224 226 225 222 219 218 215 210 209 211 211 210 212 214 214 217 220 221 223 223 220 216 210 208 207 207 209 213 218 220 223 229 235 234 231
26 110 115 125 130 113 193 224 51 215 243 295 292 161 213 253 14 5 7 5 357 354 345 324 271 229 217 214 214 213 212 213 213 214 214 213 213 213 214 215 216 218 221 223 225 226 226 226 225 223 221 218 218 221 224 223 223 223 224 224 224 223 224 226 226 224 222 223 220 216 215 217 217 214 214 214 215 219 222 222 225 226 224 221 215 211 209 208 211 214 217 221 225 230 235 236 235
319 185 128 119 146 144 183 203 161 178 225 327 355 186 203 161 145 31 16 12 8 6 1 358 349 291 230 218 217 214 213 213 213 214 214 214 214 213 214 215 215 217 220 221 224 225 226 227 226 224 222 220 218 220 223 224 224 224 225 226 227 226 225 226 227 226 224 225 225 222 220 222 222 219 217 218 217 221 224 224 225 226 225 225 220 214 212 212 215 218 219 220 223 228 234 237 240
282 96 90 87 150 154 153 179 173 159 141 86 183 203 224 179 160 24 15 12 11 7 1 2 1 348 268 217 214 215 214 214 213 214 214 214 215 214 214 214 215 216 218 220 222 224 226 226 226 225 223 222 220 220 222 224 225 225 226 227 227 227 226 226 227 227 225 224 226 227 225 225 226 222 219 221 220 222 225 225 226 226 224 225 223 220 218 219 222 225 226 223 219 225 234 238 241
248 49 72 203 167 142 125 172 227 70 115 172 252 291 336 308 187 7 6 7 9 7 2 357 353 356 344 232 214 213 215 215 214 214 214 214 214 214 214 214 215 215 217 219 221 224 226 227 227 226 225 224 223 221 222 224 225 225 225 226 228 228 227 226 227 227 225 223 225 227 227 227 227 224 220 222 223 224 225 226 227 226 224 224 225 226 226 226 230 234 238 236 227 226 235 239 241
109 81 295 245 129 112 114 120 14 42 127 206 4 47 17 11 287 353 3 6 4 1 357 354 351 356 354 327 259 224 216 217 217 216 215 214 214 214 215 215 215 216 217 219 221 223 225 227 228 228 227 225 224 224 223 224 226 226 226 226 227 228 228 227 228 228 227 225 224 224 226 225 225 224 222 223 225 225 224 227 228 226 226 227 227 230 233 234 237 240 244 244 238 235 237 238 239
65 119 329 66 109 111 20 99 136 109 153 174 16 39 42 31 332 352 7 5 0 358 356 358 355 352 348 338 322 272 229 220 219 217 216 215 214 214 214 215 216 217 218 220 221 222 224 226 228 229 229 228 226 226 225 225 226 228 228 227 227 228 228 228 229 229 229 227 225 224 224 224 224 225 226 225 225 224 223 224 226 227 228 229 231 234 236 239 242 243 246 247 243 242 241 238 236
25 34 11 29 109 147 56 87 145 146 156 164 60 26 24 358 327 359 10 3 3 3 359 2 357 350 345 340 335 312 252 225 219 218 217 215 215 215 215 215 216 216 217 218 218 220 222 225 227 228 229 229 228 228 227 227 227 228 229 229 228 229 229 229 229 230 230 229 227 226 225 225 225 226 228 227 226 225 222 221 223 226 229 231 233 236 239 243 246 246 247 246 243 241 241 238 235
16 30 23 3 348 16 58 40 49 100 135 161 118 74 12 306 330 358 360 2 13 9 2 9 5 358 352 350 352 342 275 234 222 218 218 217 215 215 216 216 216 216 216 216 217 219 221 223 225 227 227 228 228 228 228 228 228 229 230 230 230 230 230 230 231 231 231 231 230 228 227 227 226 226 226 227 226 224 221 222 226 228 231 235 237 240 243 246 249 250 249 246 241 238 239 238 236
57 59 31 347 336 44 82 54 354 32 101 138 135 126 179 288 1 3 350 360 12 11 9 14 14 12 7 0 3 7 345 249 230 222 219 218 217 216 216 215 215 214 214 216 217 218 220 222 224 225 226 227 228 229 229 229 230 230 231 231 232 232 231 231 232 232 232 232 231 230 229 230 228 226 225 226 226 225 224 227 231 233 236 240 243 245 248 249 251 252 252 249 245 241 240 240 239